Location: Newark
(58.8333°N, 23.5833°E)
Time: 00:03:56
(UTC+00:00)

METEOR M2 - Pass Details

Date: 08 December 2019
Orbit: 819 x 827 km, 98.5° (Epoch: 19 January)

Event Time Altitude Azimuth Distance (km) Brightness Sun altitude
Rises 05:17:40 0° 25° (NNE) 3,367 ? -11.9°
Reaches altitude 10° 05:21:41 10° 55° (NE) 2,427 ? -11.4°
Maximum altitude 05:23:49 12° 79° (ENE) 2,262 ? -11.2°
Drops below altitude 10° 05:25:57 10° 102° (ESE) 2,420 ? -10.9°
Sets 05:29:56 0° 132° (SE) 3,346 ? -10.4°
